Home > Weather > Barrow > Past weeks

Flag for USA Past Weather in Barrow, Alaska, USA — Yesterday and Last 2 Weeks

Now
41 °F

Overcast.


Feels Like: 33 °F
Forecast: 37 / 44 °F
Wind: 16 mph from East

Location: Post Rogers Memorial Airport

Current Time: Jun 30, 2016 at 4:52:51 PM

Latest Report: Jun 30, 2016 at 3:53 PM


Visibility: 10 mi

Pressure: 30.07 "Hg

Humidity: 76%

Dew Point: 34 °F

Location of BarrowLocation

Past Weather in Barrow — Graph

°F

Barrow Temperature Yesterday

Maximum temperature yesterday: 40 °F (at 8:53 PM)
Minimum temperature yesterday: 31 °F (at 5:53 AM)
Average temperature yesterday: 35 °F

High & Low Weather Summary for the Past Weeks

 TemperatureHumidityPressure
High63 °F (Jun 28, 10:53 AM)97% (Jun 25, 1:53 AM)30.29 "Hg (Jun 25, 1:53 AM)
Low30 °F (Jun 22, 1:53 AM)45% (Jun 28, 10:53 AM)29.50 "Hg (Jun 18, 5:53 AM)
Average39 °F82%29.92 "Hg
* Reported Jun 15 2:53 PM — Jun 30 2:53 PM, Barrow, Weather by CustomWeather, © 2016

Note: Actual official high and low records may vary slightly from our data, if they occured in-between our weather recording intervals... More about our weather records

Advertising

Barrow Weather History for the Previous 24 Hours

Scroll right to see more
 ConditionsComfort  
Time TempWeatherWind HumidityBarometerVisibility
2:53 PM
Thu, Jun 30
40 °FLight rain. Overcast.17 mph80%30.08 "Hg10 mi
1:53 PM38 °FLow clouds.15 mph83%30.09 "Hg10 mi
12:53 PM38 °FOvercast.18 mph83%30.10 "Hg10 mi
11:53 AM37 °FOvercast.16 mph82%30.11 "Hg10 mi
10:53 AM37 °FOvercast.15 mph82%30.11 "Hg10 mi
9:53 AM37 °FOvercast.20 mph82%30.11 "Hg10 mi
8:53 AM36 °FLight rain. Overcast.14 mph82%30.12 "Hg10 mi
7:53 AM36 °FMostly cloudy.15 mph79%30.13 "Hg10 mi
6:53 AM36 °FMostly cloudy.15 mph79%30.14 "Hg10 mi
5:53 AM36 °FOvercast.13 mph79%30.15 "Hg10 mi
4:53 AM37 °FMostly cloudy.13 mph79%30.16 "Hg10 mi
3:53 AM37 °FMostly cloudy.12 mph79%30.16 "Hg10 mi
2:53 AM37 °FBroken clouds.16 mph76%30.16 "Hg10 mi
1:53 AM37 °FPartly sunny.14 mph79%30.17 "Hg10 mi
12:53 AM37 °FPartly sunny.12 mph79%30.18 "Hg10 mi
11:53 PM
Wed, Jun 29
37 °FPartly sunny.12 mph76%30.17 "Hg10 mi
10:53 PM37 °FOvercast.13 mph79%30.17 "Hg10 mi
9:53 PM39 °FScattered clouds.12 mph73%30.16 "Hg10 mi
8:53 PM40 °FBroken clouds.9 mph70%30.16 "Hg10 mi
7:53 PM38 °FBroken clouds.9 mph73%30.15 "Hg10 mi
6:53 PM38 °FBroken clouds.7 mph70%30.15 "Hg10 mi
5:53 PM38 °FBroken clouds.7 mph70%30.14 "Hg10 mi
4:53 PM37 °FScattered clouds.8 mph73%30.14 "Hg10 mi
Weather by CustomWeather, © 2016

See weather overviewHow to use our weather pages